Regional Weather Roundup
Issued by NWS

Home | Current Version | Previous Version | Graphics & Text | Print | Product List | Glossary On
Versions: 1 2 3 4 5 6 7 8 9 10 11 12 13 14 15 16 17 18 19 20 21 22 23 24 25 26 27 28 29 30 31 32 33 34 35 36 37 38 39 40 41 42 43 44 45 46 47 48 49 50
000
ASUS43 KOAX 291710
RWRNE

WEATHER ROUNDUP FOR NEBRASKA
NATIONAL WEATHER SERVICE OMAHA NE
1200 PM CDT SAT APR 29 2017

NOTES: SATELLITE DATA IS BEING USED TO AUGMENT CLOUD COVER ABOVE
       12000 FEET.
       "FAIR" INDICATES FEW OR NO CLOUDS BELOW 12,000 FEET WITH NO
       SIGNIFICANT WEATHER AND/OR OBSTRUCTIONS TO VISIBILITY.

  * THESE STATIONS DO NOT REPORT WEATHER SUCH AS RAIN...SNOW OR FOG.

NEZ001>004-019>022-054>056-291800-
NEBRASKA PANHANDLE

CITY           SKY/WX    TMP DP  RH WIND       PRES   REMARKS
SCOTTSBLUFF    CLOUDY    41  26  55 N14       30.26R
ALLIANCE       CLOUDY    41  22  46 NE15      30.22F
CHADRON        MOSUNNY   44  24  45 VRB6      30.26F
KIMBALL        CLOUDY    36  26  67 N10       30.21R WCI  28
SIDNEY         CLOUDY    38  23  55 N18G24    30.20R WCI  28
$$

NEZ057>060-069>072-079>082-291800-
SOUTHWEST NEBRASKA

CITY           SKY/WX    TMP DP  RH WIND       PRES   REMARKS
NORTH PLATTE   CLOUDY    45  25  45 NE18G24   30.15R
IMPERIAL       CLOUDY    40  27  59 N21G26    30.15R WCI  30
LEXINGTON      CLOUDY    42  30  62 NE23      30.11R
MCCOOK         CLOUDY    42  30  62 NE20G28   30.09R
OGALLALA       CLOUDY    43  25  49 N18       30.18R
$$

NEZ005>010-023>029-035>040-094-291800-
NORTH CENTRAL NEBRASKA

CITY           SKY/WX    TMP DP  RH WIND       PRES   REMARKS
VALENTINE      CLOUDY    48  13  24 N14       30.22F
AINSWORTH      CLOUDY    46  24  41 NE17G24   30.20F
BROKEN BOW     CLOUDY    45  29  53 NE24G32   30.11F
O`NEILL        CLOUDY    48  24  38 NE16G22   30.17F
ORD            CLOUDY    45  27  49 NE18G28   30.13F
THEDFORD       CLOUDY    47  22  37 NE18G26   30.16F
$$

NEZ041-046>049-061>064-073>077-083>087-291800-
SOUTH CENTRAL NEBRASKA

CITY           SKY/WX    TMP DP  RH WIND       PRES   REMARKS
GRAND ISLAND   CLOUDY    43  34  70 NE23      30.10R
AURORA         CLOUDY    43  35  74 NE23G29   30.08R
HASTINGS       CLOUDY    42  35  76 NE21G29   30.07R
HEBRON         CLOUDY    41  39  92 NE13G22   30.01R
HOLDREGE       CLOUDY    40  32  73 NE17      30.07R WCI  31
KEARNEY *      CLOUDY    43  30  61 NE24G30   30.09R
YORK           CLOUDY    43  36  75 NE21G26   30.08R
$$

NEZ011>018-030>034-042>045-291800-
NORTHEAST NEBRASKA

CITY           SKY/WX    TMP DP  RH WIND       PRES   REMARKS
NORFOLK        CLOUDY    49  29  46 NE22G30   30.11F
ALBION         CLOUDY    47  30  50 NE22G30   30.13R
BLAIR          CLOUDY    45  36  71 NE18G26   30.06F
FREMONT        CLOUDY    45  34  65 NE17G23   30.09S
TEKAMAH        CLOUDY    47  34  60 NE21G30   30.13R
WAYNE          CLOUDY    49  33  54 NE23      30.14F
$$

NEZ050>053-065>068-078-088>093-291800-
SOUTHEAST NEBRASKA

CITY           SKY/WX    TMP DP  RH WIND       PRES   REMARKS
LINCOLN        LGT RAIN  46  38  73 NE22G35   30.04R
OMAHA EPPLEY   LGT RAIN  46  36  68 NE18      30.08R
BEATRICE       CLOUDY    44  40  88 NE15G25   29.98F
FALLS CITY     LGT RAIN  45  43  93 NE14G24   29.93F
NEBRASKA CITY  LGT RAIN  43  41  91 NE15      30.02S
PLATTSMOUTH    CLOUDY    45  37  73 NE17      30.04S
$$

NEZ044-045-051>053-067-291800-
OMAHA AREA

CITY           SKY/WX    TMP DP  RH WIND       PRES   REMARKS
OMAHA EPPLEY   LGT RAIN  46  36  68 NE18      30.08R
BLAIR          CLOUDY    45  36  71 NE18G26   30.06F
FREMONT        CLOUDY    45  34  65 NE17G23   30.09S
MILLARD        LGT RAIN  47  38  69 NE10G17   30.07R
OFFUTT AFB     LGT RAIN  45  38  75 NE15G23   30.06R
PLATTSMOUTH    CLOUDY    45  37  73 NE17      30.04S
WAHOO          CLOUDY    44  36  73 NE23G31   30.05F
$$




USA.gov is the U.S. government's official web portal to all federal, state and local government web resources and services.